Regional Weather Roundup
Issued by NWS Jackson, KY

Home | Current Version | Previous Version | Text Only | Print | Product List | Glossary Off
Versions: 1 2 3 4 5 6 7 8 9 10 11 12 13 14 15 16 17 18 19 20 21 22 23 24 25 26 27 28 29 30 31 32 33 34 35 36 37 38 39 40 41 42 43 44 45 46 47 48 49 50

000
ASUS43 KJKL 290205
RWRJKL

EAST KENTUCKY HOURLY WEATHER ROUNDUP
NATIONAL WEATHER SERVICE JACKSON KY
900 PM EST FRI NOV 28 2014

NOTE: "FAIR" INDICATES FEW OR NO CLOUDS BELOW 12,000 FEET WITH
NO SIGNIFICANT WEATHER AND/OR OBSTRUCTIONS TO VISIBILITY.

* THESE REPORTS ARE NOT UNDER NWS QUALITY CONTROL AND MAY NOT
  REPORT WEATHER SUCH AS PRECIPITATION AND FOG.

KYZ079-080-083-085-087-088-110-112-115-119-120-290300
...EASTERN KENTUCKY...

CITY           SKY/WX    TMP DP  RH WIND       PRES   REMARKS
JACKSON        PTCLDY    31  16  54 S3        30.17F
LONDON         PTCLDY    34  17  50 CALM      30.18F
SOMERSET*      MOCLDY    34  19  55 S5        30.18F WCI  30
MONTICELLO*    PTCLDY    38  20  48 S8        30.19F WCI  32
HARLAN APT*    CLEAR     34  18  51 E7        30.21F WCI  28
BLACK MTN*       N/A     27  -2  28 S9          N/A  WCI  17
PIKEVILLE APT* CLEAR     32  21  64 SE6       30.17F WCI  26
BIG SANDY*     CLEAR     32  20  62 CALM      30.19F
MOREHEAD APT*    N/A     32  18  55 SE6       30.18F WCI  26
$$

KYZ035-036-041-042-044-050-067-078-099-290300
...CENTRAL KENTUCKY...

CITY           SKY/WX    TMP DP  RH WIND       PRES   REMARKS
MT STERLING*   PTCLDY    32  19  59 S7        30.16F WCI  26
FLEMING/MASON* MOCLDY    31  19  61 SE8       30.16F WCI  23
DANVILLE*      PTCLDY    32  19  59 S7        30.14F WCI  26
RICHMOND*      PTCLDY    36  18  48 S8        30.15F WCI  29
LEXINGTON      PTCLDY    33  18  53 SE14      30.12F WCI  23
FRANKFORT      MOCLDY    32  18  56 SE6       30.11F WCI  26
$$

KYZ091>093-OHZ055-061-077-WVZ005-015-034-035-042-290300
...SOUTHERN OHIO/WEST VIRGINIA...

CITY           SKY/WX    TMP DP  RH WIND       PRES   REMARKS
COVINGTON      MOCLDY    33  17  51 S9        30.11F WCI  25
COLUMBUS       CLOUDY    31  17  56 SE8       30.17F WCI  23
DAYTON         CLOUDY    33  18  53 S13       30.11F WCI  24
WILMINGTON     CLOUDY    30  18  60 S9        30.13S WCI  22
HUNTINGTON     PTCLDY    30  18  60 SE5       30.19F WCI  25
CHARLESTON     PTCLDY    27  22  81 CALM      30.21F
PINEVILLE*     PTCLDY    25  25  99 MISG      30.24F
BECKLEY        CLEAR     25  17  72 S6        30.15F WCI  18
BLUEFIELD      CLEAR     28  14  55 SW7       30.16F WCI  21
$$

VAZ002-007-008-TNZ017-027-036-066-071-290300
...SOUTHWEST VIRGINIA/EAST TENNESSEE...

CITY           SKY/WX    TMP DP  RH WIND       PRES   REMARKS
WISE*          CLEAR     30  18  59 S6        30.17F WCI  24
JONESVILLE*    CLEAR     27  23  86 CALM      30.26F
ABINGDON*      CLEAR     29  23  77 CALM      30.22F
BRISTOL        PTCLDY    27  22  81 CALM      30.24F
KNOXVILLE      CLEAR     33  22  63 CALM      30.25F
OAK RIDGE      CLEAR     31  23  72 CALM      30.26F
CROSSVILLE     CLEAR     36  17  46 S7        30.20F WCI  30
NASHVILLE      PTCLDY    42  22  44 S15       30.16F
$$

...KEY TO REMARKS...
VSB - VISIBILITY IN MILES
WCI - WIND CHILL INDEX
HX  - HEAT INDEX

$$


USA.gov is the U.S. government's official web portal to all federal, state and local government web resources and services.